Flag for Canada Weather past 2 weeks in Chatham-Kent, Ontario, Canada

Now
34 °F

Chilly.


Feels Like: 29 °F
Forecast: 32 / 42 °F
Wind: 6 mph from Southeast

Location: Erieau

Current Time: Apr 1, 2015 at 2:29:21 PM

Latest Report: Apr 1, 2015 at 1:00 PM


Visibility: N/A

Pressure: 30.17 "Hg

Humidity: 92%

Dew point: 32 °F

Location of Chatham-KentLocation

Historic Weather in Chatham-Kent — Graph

°F

Chatham-Kent temperature yesterday

Maximum temperature yesterday: 40 °F (at 6:00 PM)
Minimum temperature yesterday: 31 °F (at 1:00 AM)
Average temperature yesterday: 34 °F

Past Weeks' High & Low Weather Summary

 TemperatureHumidityPressure
High49 °F (Mar 30, 5:00 PM)100% (Mar 21, 2:00 PM)30.40 "Hg (Mar 21, 2:00 PM)
Low16 °F (Mar 28, 7:00 AM)33% (Mar 18, 5:00 PM)29.73 "Hg (Mar 30, 2:00 AM)
Average30 °F75%30.12 "Hg
* Reported Mar 17 1:00 PM — Apr 1 1:00 PM, Chatham-Kent, Weather by CustomWeather, © 2015

Note: Actual official high and low records may vary slightly from our data, if they occured in-between our weather recording intervals... More about our weather records

Advertising

Chatham-Kent weather history for previous 24 hours

 ConditionsComfort  
Time TempWeatherWind HumidityBarometerVisibility
1:00 PM
Wed, Apr 1
34 °FChilly.6 mph92%30.17 "HgN/A
12:00 PM35 °FChilly.6 mph90%30.16 "HgN/A
11:00 AM35 °FChilly.3 mph87%30.16 "HgN/A
10:00 AM35 °FChilly.5 mph95%30.12 "HgN/A
9:00 AM34 °FChilly.7 mph97%30.10 "HgN/A
8:00 AM33 °FChilly.6 mph93%30.08 "HgN/A
7:00 AM31 °FChilly.6 mph100%30.06 "HgN/A
6:00 AM32 °FChilly.6 mph100%30.04 "HgN/A
5:00 AM32 °FChilly.6 mph100%30.02 "HgN/A
4:00 AM33 °FChilly.3 mph95%30.02 "HgN/A
3:00 AM31 °FChilly.2 mph100%30.02 "HgN/A
2:00 AM31 °FChilly.2 mph96%30.01 "HgN/A
1:00 AM32 °FChilly.No wind95%30.01 "HgN/A
12:00 AM31 °FChilly.3 mph100%30.01 "HgN/A
11:00 PM
Tue, Mar 31
31 °FChilly.5 mph98%30.01 "HgN/A
10:00 PM32 °FChilly.3 mph92%30.01 "HgN/A
9:00 PM34 °FChilly.3 mph83%29.98 "HgN/A
8:00 PM37 °FChilly.2 mph67%29.96 "HgN/A
7:00 PM40 °FChilly.3 mph64%29.94 "HgN/A
6:00 PM40 °FChilly.5 mph68%29.93 "HgN/A
5:00 PM39 °FChilly.5 mph71%29.91 "HgN/A
4:00 PM36 °FChilly.5 mph79%29.89 "HgN/A
3:00 PM35 °FChilly.7 mph87%29.88 "HgN/A
2:00 PM34 °FChilly.5 mph90%29.85 "HgN/A
Weather by CustomWeather, © 2015

See weather overviewHow to use our weather pages